Location: Elstree
(51.6403°N, 0.2969°W)
Time: 16:18:05
(UTC+00:00)

SJ 16-02 - Pass Details

Date: 19 June 2021
Orbit: 606 x 616 km, 75.0° (Epoch: 29 July)

Event Time Altitude Azimuth Distance (km) Brightness Sun altitude
Rises 00:16:46 0° 334° (NNW) 2,878 5.9 -14.9°
Reaches altitude 10° 00:19:02 10° 330° (NNW) 1,969 4.8 -14.8°
Maximum altitude 00:23:20 58° 252° (WSW) 714 1.5 -14.8°
Enters shadow 00:25:40 26° 182° (S) 1,218 2.2 -14.8°
